Location: Seven Kings
(51.5667°N, 0.1000°E)
Time: 11:44:12
(UTC+00:00)

Cosmos 2278 - Pass Details

Date: 29 October 2020
Orbit: 842 x 851 km, 71.1° (Epoch: 24 November)

Event Time Altitude Azimuth Distance (km) Brightness Sun altitude
Rises 19:47:07 0° 217° (SW) 3,401 7.1 -29.8°
Reaches altitude 10° 19:49:35 10° 220° (SW) 2,468 6.4 -30.2°
Enters shadow 19:54:44 64° 272° (W) 934 4.0 -31.0°
